CW9561 Weather Reports


time (UTC)temp
C
wind
direction
speed
KPH
gust
KPH
rain 1hr
cm
rain 24hr
cm
rain mn
cm
humidity
%
barometer
mb
20260509221028 16 281 3.2 0.0 0.00 0.00 0.00 25 1019.5
20260509220024 16 252 3.2 0.0 0.00 0.00 0.00 23 1019.5
20260509215039 16 292 4.8 0.0 0.00 0.00 0.00 23 1019.5
20260509214032 17 281 1.6 0.0 0.00 0.00 0.00 24 1019.4
20260509213027 16 263 4.8 0.0 0.00 0.00 0.00 27 1019.7
20260509212021 16 328 6.4 0.0 0.00 0.00 0.00 23 1019.4
20260509210040 16 215 3.2 0.0 0.00 0.00 0.00 26 1019.5
20260509205030 16 306 4.8 0.0 0.00 0.00 0.00 24 1019.7
20260509204028 16 271 4.8 0.0 0.00 0.00 0.00 25 1019.7
20260509203026 16 303 3.2 0.0 0.00 0.00 0.00 25 1019.5
20260509202027 16 262 4.8 0.0 0.00 0.00 0.00 24 1019.6
20260509201038 16 303 4.8 0.0 0.00 0.00 0.00 24 1020.0
20260509200032 16 284 4.8 0.0 0.00 0.00 0.00 24 1020.1
20260509194022 16 300 4.8 0.0 0.00 0.00 0.00 25 1019.7
20260509193023 15 279 4.8 0.0 0.00 0.00 0.00 25 1019.6
20260509192036 15 276 3.2 0.0 0.00 0.00 0.00 27 1020.0
20260509191029 16 283 3.2 0.0 0.00 0.00 0.00 27 1019.9
20260509190023 16 306 3.2 0.0 0.00 0.00 0.00 28 1019.8
20260509185035 15 288 1.6 0.0 0.00 0.00 0.00 27 1019.7
20260509184033 15 294 4.8 0.0 0.00 0.00 0.00 26 1019.9
20260509183027 15 53 3.2 0.0 0.00 0.00 0.00 28 1019.6
20260509181036 15 294 3.2 0.0 0.00 0.00 0.00 31 1019.7
20260509180029 15 294 4.8 0.0 0.00 0.00 0.00 34 1019.9
20260509175026 15 302 3.2 0.0 0.00 0.00 0.00 31 1020.0
20260509174022 14 126 4.8 0.0 0.00 0.00 0.00 32 1020.1
20260509172028 13 273 4.8 0.0 0.00 0.00 0.00 35 1020.0
20260509171020 13 131 4.8 0.0 0.00 0.00 0.00 34 1020.2
20260509170021 14 221 3.2 0.0 0.00 0.00 0.00 35 1020.1
20260509165034 14 190 3.2 0.0 0.00 0.00 0.00 33 1020.0
20260509164030 14 279 3.2 0.0 0.00 0.00 0.00 34 1019.9
20260509163023 15 336 1.6 0.0 0.00 0.00 0.00 33 1020.2
20260509162017 14 221 3.2 0.0 0.00 0.00 0.00 37 1019.9
20260509161038 13 325 1.6 0.0 0.00 0.00 0.00 33 1019.8
20260509160034 13 345 1.6 0.0 0.00 0.00 0.00 35 1020.1
20260509155028 13 92 1.6 0.0 0.00 0.00 0.00 36 1019.4
20260509154022 13 302 1.6 0.0 0.00 0.00 0.00 38 1019.4
20260509153022 12 190 1.6 0.0 0.00 0.00 0.00 37 1019.5
20260509152036 13 226 1.6 0.0 0.00 0.00 0.00 34 1019.6
20260509151029 12 13 3.2 0.0 0.00 0.00 0.00 36 1019.7
20260509150023 12 252 3.2 0.0 0.00 0.00 0.00 36 1019.6
20260509145040 12 313 1.6 0.0 0.00 0.00 0.00 39 1019.6
20260509144036 12 240 1.6 0.0 0.00 0.00 0.00 36 1019.6
20260509143027 11 174 1.6 0.0 0.00 0.00 0.00 38 1019.5
20260509142037 11 5 1.6 0.0 0.00 0.00 0.00 39 1019.5
20260509141028 11 288 3.2 0.0 0.00 0.00 0.00 41 1019.6
20260509135033 10 96 4.8 0.0 0.00 0.00 0.00 43 1019.9
20260509134029 10 112 1.6 0.0 0.00 0.00 0.00 43 1019.8
20260509133040 9 14 0.0 0.0 0.00 0.00 0.00 46 1019.7
20260509131025 8 58 0.0 0.0 0.00 0.00 0.00 49 1019.8
20260509130037 7 249 0.0 0.0 0.00 0.00 0.00 52 1019.9
20260509125037 6 265 0.0 0.0 0.00 0.00 0.00 58 1019.9
20260509124033 5 265 0.0 0.0 0.00 0.00 0.00 59 1019.2
20260509123028 4 265 0.0 0.0 0.00 0.00 0.00 58 1019.9
20260509122023 4 154 0.0 0.0 0.00 0.00 0.00 57 1019.9
20260509121027 5 247 0.0 0.0 0.00 0.00 0.00 58 1019.8
20260509120022 5 247 0.0 0.0 0.00 0.00 0.00 57 1019.5
20260509115035 5 247 0.0 0.0 0.00 0.00 0.00 55 1019.4
20260509111018 7 247 0.0 0.0 0.00 0.00 0.00 52 1019.3
20260509110037 7 247 0.0 0.0 0.00 0.00 0.00 52 1019.4
20260509105030 7 247 1.6 0.0 0.00 0.00 0.00 52 1019.2
20260509104025 7 263 1.6 0.0 0.00 0.00 0.00 53 1019.0
20260509103036 6 257 0.0 0.0 0.00 0.00 0.00 53 1018.9
20260509102034 6 258 0.0 0.0 0.00 0.00 0.00 53 1019.0
20260509101028 6 267 1.6 0.0 0.00 0.00 0.00 53 1018.9
20260509095038 7 186 0.0 0.0 0.00 0.00 0.00 52 1019.0
20260509094029 7 235 0.0 0.0 0.00 0.00 0.00 53 1019.0
20260509093025 7 245 0.0 0.0 0.00 0.00 0.00 54 1019.1
20260509092039 7 294 0.0 0.0 0.00 0.00 0.00 55 1019.0
20260509090034 6 250 0.0 0.0 0.00 0.00 0.00 56 1018.3
20260509085027 6 195 0.0 0.0 0.00 0.00 0.00 57 1018.4
20260509084022 6 263 0.0 0.0 0.00 0.00 0.00 57 1018.4
20260509083019 6 263 0.0 0.0 0.00 0.00 0.00 55 1018.6
20260509082035 6 263 0.0 0.0 0.00 0.00 0.00 54 1018.7
20260509081030 7 263 0.0 0.0 0.00 0.00 0.00 53 1018.8
20260509080028 7 263 0.0 0.0 0.00 0.00 0.00 51 1018.9
20260509075020 7 263 0.0 0.0 0.00 0.00 0.00 51 1019.0
20260509074036 7 234 0.0 0.0 0.00 0.00 0.00 50 1019.1
20260509073034 8 234 0.0 0.0 0.00 0.00 0.00 50 1019.1
20260509072029 8 232 1.6 0.0 0.00 0.00 0.00 49 1019.2
20260509071022 8 221 0.0 0.0 0.00 0.00 0.00 48 1019.3
20260509070035 8 259 0.0 0.0 0.00 0.00 0.00 48 1019.4
20260509065033 8 259 0.0 0.0 0.00 0.00 0.00 48 1019.4
20260509064030 8 259 1.6 0.0 0.00 0.00 0.00 48 1019.5
20260509063022 8 290 0.0 0.0 0.00 0.00 0.00 48 1019.5
20260509061033 9 191 0.0 0.0 0.00 0.00 0.00 47 1019.3
20260509060025 9 246 0.0 0.0 0.00 0.00 0.00 46 1019.3
20260509055023 9 246 1.6 0.0 0.00 0.00 0.00 46 1019.2
20260509052027 8 275 0.0 0.0 0.00 0.00 0.00 48 1018.8
20260509050036 9 275 0.0 0.0 0.00 0.00 0.00 44 1019.0
20260509045033 10 275 0.0 0.0 0.00 0.00 0.00 44 1019.1
20260509044023 10 275 0.0 0.0 0.00 0.00 0.00 44 1019.2
20260509043036 9 275 0.0 0.0 0.00 0.00 0.00 44 1019.3
20260509042029 9 275 0.0 0.0 0.00 0.00 0.00 45 1019.4
20260509041041 9 275 0.0 0.0 0.00 0.00 0.00 44 1019.4
20260509040037 9 275 1.6 0.0 0.00 0.00 0.00 44 1019.3
20260509035030 10 275 0.0 0.0 0.00 0.00 0.00 44 1019.3
20260509034022 10 275 0.0 0.0 0.00 0.00 0.00 43 1019.2
20260509033038 10 275 0.0 0.0 0.00 0.00 0.00 43 1019.1
20260509032030 10 275 0.0 0.0 0.00 0.00 0.00 43 1019.1
20260509031029 10 275 0.0 0.0 0.00 0.00 0.00 42 1018.8
20260509030023 10 275 0.0 0.0 0.00 0.00 0.00 43 1018.7
20260509025040 10 275 0.0 0.0 0.00 0.00 0.00 42 1018.7
20260509024032 11 275 0.0 0.0 0.00 0.00 0.00 42 1018.7
20260509023032 11 275 0.0 0.0 0.00 0.00 0.00 42 1018.6
20260509022031 11 275 0.0 0.0 0.00 0.00 0.00 43 1018.6
20260509021022 11 275 0.0 0.0 0.00 0.00 0.00 42 1018.4
20260509020039 12 179 0.0 0.0 0.00 0.00 0.00 40 1018.3
20260509015032 12 278 0.0 0.0 0.00 0.00 0.00 40 1018.3
20260509014029 12 277 0.0 0.0 0.00 0.00 0.00 39 1018.4
20260509013024 13 277 0.0 0.0 0.00 0.00 0.00 38 1018.4
20260509012037 13 332 0.0 0.0 0.00 0.00 0.00 38 1018.5
20260509010028 14 276 0.0 0.0 0.00 0.00 0.00 36 1017.8
20260509005026 14 318 1.6 0.0 0.00 0.00 0.00 37 1017.8
20260509004038 14 285 1.6 0.0 0.00 0.00 0.00 36 1017.9
20260509002028 15 296 3.2 0.0 0.00 0.00 0.00 35 1017.9
20260509001022 15 341 3.2 0.0 0.00 0.00 0.00 35 1017.9
20260509000041 15 306 1.6 0.0 0.00 0.00 0.00 35 1018.1
20260508235033 15 343 3.2 0.0 0.00 0.00 0.00 36 1018.1
20260508233034 15 291 4.8 0.0 0.00 0.00 0.00 36 1018.1
20260508232030 15 321 3.2 0.0 0.00 0.00 0.00 37 1018.2
20260508230029 15 330 4.8 0.0 0.00 0.00 0.00 34 1018.2
20260508225022 16 360 3.2 0.0 0.00 0.00 0.00 35 1018.4
20260508224037 16 256 3.2 0.0 0.00 0.00 0.00 35 1018.3
20260508223032 16 296 4.8 0.0 0.00 0.00 0.00 34 1018.3
20260508222032 16 355 4.8 0.0 0.00 0.00 0.00 35 1018.2